CAPE
2834 1959 1812 2305 1688 1171 1253 1431 2117 2624 2029 2064 2031 2085 2162 1792 1914 2515 1652 1897 2559 1546
3260 2840 2340 3278 2978 1635 2318 1707 1413 2301 2558 1778 2140 1824 3121 1894 2591 2123 1947 2172 2711 2086
2625 2872 2794 2503 2871 2816 2376 2715 2039 2139 1555 1706 2101 2799 3159 2129 2533 2936 1667 1152 2900 2875
2827 2546 2750 2580 2701 3265 2464 2535 2512 2836 2350 2412 2306 2855 2896 2483 2623 1785 2331 2215 2659 2599
2851 2941 2467 2787 2791 3337 3563 2897 3424 2966 2541 2433 2437 2527 2643 2119 2076 2193 1985 2058 2373 2009
2491 2512 2621 2754 3249 3445 3033 3313 2324 3055 3387 2667 2553 2950 2727 2505 2480 2022 2346 2312 2434 2049
2699 3070 2285 2978 3547 3184 3536 3550 3415 2912 3065 2978 2880 2713 2460 2702 2684 2281 2067 2888 1900 1855
3290 2502 2736 2986 3331 3395 2990 2887 3059 3565 2950 2858 2440 1803 2842 3032 2231 2681 2355 2725 2067 2491
2979 3010 2598 3123 3390 3276 3360 3354 3576 3350 3100 2995 1764 986 939 1639 2377 2850 2805 2573 2430 1957
2448 2378 2532 2618 2698 2872 3266 3076 3174 3185 3042 3205 3100 1392 930 730 1130 1487 2619 2682 2369 1813
1137 1173 1326 1800 2199 2356 3068 3191 3248 2910 3131 3203 3174 1569 1104 926 1817 1992 2325 2218 2162 2660
538 444 452 498 621 1133 1944 2637 2700 2921 3006 3022 3200 1607 1261 1118 1766 1850 2374 1868 1753 2049
92 6 5 10 15 24 370 1003 1367 2655 2695 2314 2964 1988 1282 1069 1761 1851 1743 2090 1302 1013
6 0 0 0 0 3 19 91 731 1832 2488 2550 2124 2308 1223 1053 2345 2655 1522 1098 541 276
CIN
-0 -0 -0 -0 -0 -1 -7 -32 -49 -0 -0 -0 -0 -0 -0 -0 -0 -0 -0 -1 -0 -0
-0 -0 -0 -0 -0 -0 -9 -2 -39 -16 -11 -0 -0 -0 -2 -0 -0 -0 -1 -0 -0 -0
-0 -1 -1 -0 -0 -0 -10 -7 -2 -0 -0 -0 -0 -0 -0 -0 -0 -0 -0 -0 -0 -0
-0 -0 -0 -0 -0 -0 -0 -0 -0 -0 -0 -0 -0 -0 -0 -0 -0 -2 -0 -0 -0 -0
-0 -0 -0 -0 -0 -0 -0 -0 -0 -0 -0 -0 -0 -0 -0 -0 -0 -0 -0 -0 -0 -0
-0 -0 -0 -0 -0 -0 -0 -0 -0 -0 -0 -0 -0 -0 -0 -0 -0 -0 -0 -2 -2 -0
-0 -0 -0 -0 -0 -0 -1 -0 -0 -0 -0 -0 -0 -0 -0 -0 -0 -0 -0 -0 -0 -0
-0 -0 -0 -4 -0 -0 -0 -0 -0 -0 -0 -0 -0 -0 -0 -0 -12 -0 -0 -0 -0 -0
-1 -0 -0 -3 -0 -0 -0 -0 -0 -0 -0 -0 -0 -1 -2 -14 -0 -0 -0 -0 -0 -0
-5 -1 -0 -0 -0 -0 -0 -0 -0 -0 -0 -0 -0 -12 -5 -4 -0 -0 -0 -0 -0 -0
-19 -8 -3 -0 -0 -0 -0 -0 -0 -0 -0 -0 -0 -13 -22 -13 -1 -0 -0 -0 -0 -0
-69 -81 -66 -53 -37 -3 -0 -0 -0 -0 -0 -0 -0 -5 -21 -17 -0 -0 -0 -0 -0 -0
-125 -0 -0 -0 -0 -27 -69 -15 -0 -0 -0 -0 -0 -2 -5 -17 -0 -0 -0 -0 -2 -1
-0 -0 -0 -0 -0 -0 -0 -137 -22 -0 -0 -0 -0 -0 -12 -14 -6 -3 -0 -0 -6 -28
Wind_Speed
7 6 8 7 11 16 24 30 25 19 19 15 13 14 13 12 8 10 10 8 7 10
10 5 7 6 11 11 17 25 26 22 23 15 15 14 18 12 12 12 12 8 10 10
10 10 5 6 9 10 17 19 22 22 18 17 15 17 18 15 15 13 14 11 13 12
11 10 10 7 9 10 12 15 18 21 22 19 17 17 20 16 16 19 14 13 13 13
8 8 13 11 10 12 11 13 17 20 22 22 20 20 18 14 13 15 14 15 13 12
16 13 13 14 14 13 14 14 13 16 18 20 22 21 19 17 16 14 14 16 16 15
12 15 14 14 14 15 19 18 14 14 16 18 20 20 21 20 18 15 14 15 16 16
17 21 19 21 19 20 19 21 19 16 17 18 18 19 20 19 25 20 18 18 18 18
24 21 20 19 26 27 21 22 22 19 18 19 19 19 23 23 24 23 23 24 21 22
36 30 22 17 15 24 24 22 22 23 23 23 21 23 29 29 25 25 27 30 26 26
36 33 30 25 21 22 27 25 25 23 26 25 28 30 32 34 31 28 25 30 31 30
37 37 33 29 26 23 24 26 23 30 26 26 28 37 36 40 33 33 31 36 35 38
nan nan nan nan nan nan 29 23 25 26 27 28 29 37 34 41 38 37 41 45 46 51
nan nan nan nan nan nan nan nan 28 26 30 30 29 32 40 40 39 42 44 48 46 48
Wind_Direction
315 271 258 261 227 224 227 219 229 241 235 239 232 255 242 239 258 288 294 271 242 219
317 333 290 271 273 228 220 218 237 225 242 239 253 252 267 272 285 275 288 278 285 276
323 321 304 279 267 247 240 236 222 236 244 244 246 262 259 253 260 269 271 278 283 270
301 310 310 297 279 262 253 235 236 243 230 238 239 249 254 241 232 250 251 252 245 256
268 279 291 292 292 274 248 258 250 247 245 232 237 247 255 266 249 268 277 276 262 258
278 275 278 268 274 273 275 257 250 250 247 239 239 256 255 255 250 246 255 276 277 276
276 262 266 257 251 262 270 267 250 246 247 255 256 260 264 267 259 253 257 258 260 261
275 274 264 253 250 243 243 266 266 253 244 247 254 258 266 263 266 267 265 256 273 271
262 274 274 269 251 257 249 253 257 257 262 259 248 249 264 266 267 270 266 265 262 271
249 251 259 259 272 254 255 248 254 254 244 252 253 249 262 272 269 260 270 277 273 273
249 247 244 249 257 246 240 246 252 252 257 253 256 256 266 272 267 266 265 273 275 273
244 241 242 242 242 244 247 250 256 251 250 252 254 262 267 268 264 268 264 267 271 276
nan nan nan nan nan nan 242 244 250 259 261 260 251 257 256 272 266 261 270 266 267 254
nan nan nan nan nan nan nan nan 247 249 256 261 260 258 263 274 267 259 266 266 267 269